timestamp,surface_pressure_avg,surface_temp_avg,battery_voltage,lat,long
2024-01-10 00:09:00+00:00,332.483,1.6,11.46,47.84626,-54.09684
2024-01-10 00:19:00+00:00,327.8796,1.6,11.46,47.84626,-54.09684
2024-01-10 00:29:00+00:00,316.0131,1.6,11.46,47.84626,-54.09684
2024-01-10 00:39:00+00:00,307.5814,1.6,11.46,47.84626,-54.09684
2024-01-10 00:49:00+00:00,300.843,1.6,11.46,47.84626,-54.09684
2024-01-10 00:59:00+00:00,292.5181,1.59,11.46,47.84626,-54.09684
2024-01-10 01:09:00+00:00,284.673,1.58,11.46,47.84626,-54.09684
2024-01-10 01:19:00+00:00,278.7031,1.6,11.46,47.84626,-54.09684
2024-01-10 01:29:00+00:00,271.5447,1.6,11.46,47.84626,-54.09684
2024-01-10 01:39:00+00:00,267.0314,1.6,11.46,47.84626,-54.09684
2024-01-10 01:49:00+00:00,264.8331,1.6,11.46,47.84626,-54.09684
2024-01-10 01:59:00+00:00,261.7397,1.6,11.46,47.84626,-54.09684
2024-01-10 02:09:00+00:00,253.0331,1.57,11.46,47.84626,-54.09684
2024-01-10 02:19:00+00:00,248.4114,1.56,11.46,47.84626,-54.09684
2024-01-10 02:29:00+00:00,246.4814,1.59,11.46,47.84626,-54.09684
2024-01-10 02:39:00+00:00,241.4731,1.58,11.46,47.84626,-54.09684
2024-01-10 02:49:00+00:00,233.8331,1.59,11.46,47.84626,-54.09684
2024-01-10 02:59:00+00:00,228.7764,1.59,11.46,47.84626,-54.09684
2024-01-10 03:09:00+00:00,226.8264,1.59,11.46,47.84626,-54.09684
2024-01-10 03:19:00+00:00,224.4014,1.57,11.37,47.84626,-54.09684
2024-01-10 03:29:00+00:00,223.4831,1.55,11.37,47.84626,-54.09684
2024-01-10 03:39:00+00:00,223.3398,1.54,11.37,47.84626,-54.09684
2024-01-10 03:49:00+00:00,224.0598,1.5,11.37,47.84626,-54.09684
2024-01-10 03:59:00+00:00,222.6514,1.5,11.37,47.84626,-54.09684
2024-01-10 04:09:00+00:00,222.2764,1.5,11.37,47.84626,-54.09684
2024-01-10 13:19:00+00:00,339.6313,1.76,12.09,47.84626,-54.09684
2024-01-10 13:29:00+00:00,334.9946,1.8,12.09,47.84626,-54.09684
2024-01-10 13:39:00+00:00,322.8129,1.8,12.09,47.84626,-54.09684
2024-01-10 13:49:00+00:00,315.288,1.8,12.09,47.84626,-54.09684
2024-01-10 13:59:00+00:00,308.598,1.83,12.09,47.84626,-54.09684
2024-01-10 14:09:00+00:00,294.8748,1.8,12.09,47.84626,-54.09684
2024-01-10 14:19:00+00:00,286.5563,1.8,12.17,47.84626,-54.09684
2024-01-10 14:29:00+00:00,281.3248,1.8,12.17,47.84626,-54.09684
2024-01-10 14:39:00+00:00,276.9614,1.8,12.17,47.84626,-54.09684
2024-01-10 14:49:00+00:00,271.8181,1.8,12.17,47.84626,-54.09684
2024-01-10 14:59:00+00:00,266.4498,1.87,12.17,47.84626,-54.09684
2024-01-10 15:09:00+00:00,261.288,1.9,12.17,47.84626,-54.09684
2024-01-10 15:19:00+00:00,253.5047,1.9,12.17,47.84626,-54.09684
2024-01-10 15:29:00+00:00,248.5881,1.9,12.17,47.84626,-54.09684
2024-01-10 15:39:00+00:00,242.1131,1.95,12.17,47.84626,-54.09684
2024-01-10 15:49:00+00:00,231.0298,1.96,12.17,47.84626,-54.09684
2024-01-10 15:59:00+00:00,218.0864,1.98,12.17,47.84626,-54.09684
2024-01-10 16:09:00+00:00,214.2865,2.0,12.17,47.84626,-54.09684
2024-01-10 16:19:01+00:00,215.7364,2.0,12.17,47.84626,-54.09684
2024-01-10 16:29:01+00:00,216.4114,2.0,12.17,47.84626,-54.09684
2024-01-10 16:39:01+00:00,218.3848,1.99,12.17,47.84626,-54.09684
2024-01-10 16:49:01+00:00,219.4231,1.99,12.17,47.84626,-54.09684
2024-01-10 16:59:01+00:00,216.8848,1.99,12.17,47.84626,-54.09684
2024-01-10 17:09:01+00:00,211.6115,1.98,12.17,47.84626,-54.09684
2024-01-10 17:19:00+00:00,204.2382,1.99,12.09,47.84626,-54.09684
2024-01-10 17:29:00+00:00,200.8514,2.0,12.09,47.84626,-54.09684
2024-01-10 17:39:00+00:00,208.4564,2.0,12.09,47.84626,-54.09684
2024-01-10 17:49:00+00:00,214.4148,2.0,12.09,47.84626,-54.09684
2024-01-10 17:59:00+00:00,213.3514,2.0,12.09,47.84626,-54.09684
2024-01-10 18:09:00+00:00,212.1098,2.0,12.09,47.84626,-54.09684
2024-01-10 18:19:00+00:00,211.0931,2.0,12.01,47.84626,-54.09684
2024-01-10 18:29:00+00:00,217.3947,2.0,12.01,47.84626,-54.09684
2024-01-10 18:39:00+00:00,223.1381,2.0,12.01,47.84626,-54.09684
2024-01-10 18:49:00+00:00,226.7864,2.0,12.01,47.84626,-54.09684
2024-01-10 18:59:00+00:00,230.9448,2.0,12.01,47.84626,-54.09684
2024-01-10 19:09:00+00:00,233.0115,2.0,12.01,47.84626,-54.09684
2024-01-10 19:19:00+00:00,237.2981,2.0,11.7,47.84626,-54.09684
2024-01-10 19:29:00+00:00,243.3798,2.0,11.7,47.84626,-54.09684
2024-01-10 19:39:00+00:00,252.1414,2.0,11.7,47.84626,-54.09684
2024-01-10 19:49:00+00:00,264.0081,2.0,11.7,47.84626,-54.09684
2024-01-10 19:59:00+00:00,270.0581,1.99,11.7,47.84626,-54.09684
2024-01-10 20:09:00+00:00,270.8014,1.98,11.7,47.84626,-54.09684
2024-01-10 20:19:00+00:00,277.8214,1.98,11.61,47.84626,-54.09684
2024-01-10 20:29:00+00:00,287.6547,1.97,11.61,47.84626,-54.09684
2024-01-10 20:39:00+00:00,286.8881,1.97,11.61,47.84626,-54.09684
2024-01-10 20:49:00+00:00,290.6047,1.98,11.61,47.84626,-54.09684
2024-01-10 20:59:00+00:00,303.2814,1.98,11.61,47.84626,-54.09684
2024-01-10 21:09:00+00:00,308.5097,1.98,11.61,47.84626,-54.09684
2024-01-10 21:19:00+00:00,301.9331,1.96,11.53,47.84626,-54.09684
2024-01-10 21:29:00+00:00,310.4847,1.99,11.53,47.84626,-54.09684
2024-01-10 21:39:00+00:00,331.1696,1.96,11.53,47.84626,-54.09684
2024-01-10 21:49:00+00:00,339.718,1.96,11.53,47.84626,-54.09684
2024-01-10 21:59:00+00:00,340.288,1.96,11.53,47.84626,-54.09684
2024-01-10 22:09:00+00:00,348.8879,1.94,11.53,47.84626,-54.09684
2024-01-10 22:19:00+00:00,351.2162,1.95,11.53,47.84626,-54.09684
2024-01-10 22:29:00+00:00,343.1364,1.9,11.53,47.84626,-54.09684
2024-01-10 22:39:00+00:00,341.7496,1.9,11.53,47.84626,-54.09684
2024-01-10 22:49:00+00:00,351.4612,1.9,11.53,47.84626,-54.09684
2024-01-10 22:59:00+00:00,349.2646,1.9,11.53,47.84626,-54.09684
2024-01-10 23:09:00+00:00,339.1763,1.9,11.53,47.84626,-54.09684
2024-01-10 23:19:00+00:00,338.36300000000006,1.82,11.53,47.84626,-54.09684
2024-01-10 23:29:00+00:00,345.7612,1.8,11.53,47.84626,-54.09684
2024-01-10 23:39:00+00:00,351.9413,1.8,11.53,47.84626,-54.09684
2024-01-10 23:49:00+00:00,344.3229,1.82,11.53,47.84626,-54.09684
2024-01-10 23:59:00+00:00,341.2012,1.86,11.53,47.84626,-54.09684
